Погода Свободный

Погода Свободный : погода сейчас, прогноз погоды и архив. Всё, что Вы хотите узнать о погоде Свободный!

Хотите узнать прогноз погоды Свободный? Тогда Вам сюда: Погода Свободный

Поиск расширенной информации на нашем сайте:

Другие новости

Новости СМИ2

Главная страница сайта

Новости сайта

02.10.2013

Напоминаем, что на нашем новом сайте вы можете получить высокодетализированные прогнозы погоды по пунктам России, СНГ и мира (включающие важные для авиации метеовеличины, такие как направление и скорость ветра, видимость, явления погоды, количество и форма облачности, нижняя и верхняя граница облачности), а также ознакомиться с разнообразными материалами по авиационной метеорологии и подборкой полезных ссылок на эту тему.

Сайт Метеоцентр.Азия посвящён разработке технологий оптимизации авиаметеорологического обслуживания, включая проектирование и перспективное создание нескольких автоматизированных авиаметеорологических систем:
- система выпуска высокодетальных прогностических карт явлений погоды для нижнего воздушного пространства по России и ближнему зарубежью;
- система верификации прогнозов TAF (выпускаемых синоптиками официальных АМСГ РФ и ближнего зарубежья) и AUTOTAF (выпускаемых сайтом Метеоцентр.Азия) - выявление ошибок, онлайн-сопоставление с фактической погодой METAR, автоматическое внесение коррективов в прогнозы при резком отклонении фактической погоды от прогноза, подсчёт оправдываемости прогнозов по элементам и в целом;
- система обработки, анализа и отображения авиаметеорологической информации для применения провайдерами метеорологической информации.


Погода Свободный - сегодня

Время (UTC), дата Ветер
(°,м/с) 
Видим.   Явления Облачность Т
(°С)
Тd
(°С)
f(%) Тe
(°С)
Pmin
(гПа)
dP
(гПа)
Po
(мм)
O2
(г/м3)
Тmin Tmax R s Состояние
почвы
21 19.01.17 310 (СЗ) 50000 м    ясно 
-31.7 -35.2 71 -33  1026.8  -0.4  749  343           
00 20.01.17 310 (СЗ) 20000 м    ясно 
-32.6 -36.4 69 -33  1027.1  0.2  749  345  -32.9      13  равномерный
сухой снег
100% 
03 20.01.17 280 (З) 20000 м    ясно 
-19.5 -26.1 56 -22  1025.6  749  327           
06 20.01.17 280 (З) 20000 м    ясно 
-16.2 -25.7 44 -19  1024.4  -0.8  748  322           
09 20.01.17 270 (З) 50000 м    ясно 
-21.6 -27.5 59 -25  1026.2  1.1  749  330           
12 20.01.17 300 (СЗ) 50000 м    ясно 
-25.4 -29 72 -26  1027.3  0.7  750  335    -16.2       
15 20.01.17 тихо ()   50000 м    ясно 
-29.8 -33.1 73 -30  1028.1  0.3  750  341           
18 20.01.17 тихо ()   50000 м    ясно 
-31.7 -35.4 70 -32  1028.8  0.5  750  344           
21 20.01.17 320 (СЗ) 50000 м    ясно 
-32.9 -36.8 68 -34  1029.3  0.3  750  346           
00 21.01.17 310 (СЗ) 20000 м    ясно 
-34 -38 67 -35  1030.8  1.3  751  348  -34.8      13  равномерный
сухой снег
100% 
03 21.01.17 360 (С) 20000 м    3/0 верхняя 
[Ci fib]
-23.4 -28.1 65 -26  1029.8  0.3  752  333           
06 21.01.17 350 (С) 20000 м    3/0 верхняя 
[Ci fib]
-18.6 -25.8 53 -21  1028.5  -0.8  751  326           
09 21.01.17 300 (СЗ) 50000 м    ясно 
-22.3 -28.1 59 -25  1029.8  0.9  752  332           
12 21.01.17 300 (СЗ) 50000 м    ясно 
-23.7 -28.8 63 -28  1030.3  0.3  752  334    -18.1       
15 21.01.17 300 (СЗ) 50000 м    ясно 
-29.5 -32.9 72 -33  1030.4  -0.5  752  341           
18 21.01.17 310 (СЗ) 50000 м    ясно 
-30.7 -34.2 71 -31  1030.3  -0.2  751  343           
21 21.01.17 310 (СЗ) 50000 м    ясно 
-30.8 -34.3 71 -32  1029.7  -0.7  751  343           
00 22.01.17 310 (СЗ) 20000 м    ясно 
-28.6 -32 72 -32  1030  0.6  751  340  -32.3      13  равномерный
сухой снег
100% 
03 22.01.17 290 (З) 20000 м    ясно 
-19.5 -26.5 54 -25  1028.1  -0.9  751  327           
06 22.01.17 300 (СЗ) 20000 м    ясно 
-15.7 -25.9 41 -19  1026.4  -1.2  750  322           
09 22.01.17 280 (З) 50000 м    4/0 верхняя 
[Ci fib]
-20.4 -27.3 54 -23  1027.4  0.4  750  328           
12 22.01.17 290 (З) 50000 м    ясно 
-22.3 -27.8 61 -27  1027.5  750  331    -15.5       
15 22.01.17 300 (СЗ) 50000 м    ясно 
-26.9 -30.9 69 -30  1027.8  -0.3  750  337           
18 22.01.17 300 (СЗ) 50000 м    ясно 
-24.6 -29 67 -30  1027.5  750  334           
21 22.01.17 300 (СЗ) 50000 м    6/0 верхняя 
[Ci fib]
-31 -34.5 71 -35  1028.8  0.5  750  343           
Время (UTC), дата Ветер
(°,м/с) 
Видим.   Явления Облачность Т
(°С)
Тd
(°С)
f(%) Тe
(°С)
Pmin
(гПа)
dP
(гПа)
Po
(мм)
O2
(г/м3)
Тmin Tmax R s Состояние
почвы

Для получения пояснительной информации подведите курсор к названию столбца.

ПОГОДА Свободный - архив

Всё, что Вы хотите узнать о погоде Свободный - удобно и подробно!

Выберите нужную дату (начиная с 1 января 2015* года) и нажмите кнопку "Найти".
Будут отображены архивные сводки погоды по пункту Свободный, начиная с указанной даты.


Отображать данные в формате CSV (для использования в таблицах Excel)


Внимание! Наш архив погоды предназначен исключительно для личного некоммерческого использования в познавательных целях. Если Вам необходимы официальные справки о состоянии погоды (для производственных, юридических, коммерческих и т.п. целей), обращайтесь в органы Росгидромета.

*Примечание: данная дата относится к архиву по метеостанциям СССР (Россия, СНГ, Балтия).
Архив по метеостанциям Зарубежной Европы и Азии (кроме Китая) хранится 10 дней, по другим регионам земного шара (Китай, Африка, Америка, Австралия, Океания) - 1 день.

Свободный - район местоположения метеостанции


Название, широта, долгота, высота метеостанции:
Свободный 51.4°ш. 128.1°д. 197 м над ур. моря [Российская Федерация]

Дополнительная информация

В oтличие oт бoльшинства пoгoдных сайтoв мы публикуем пoдрoбную метеoинфoрмацию в детальнoм прoфессиoнальнoм фoрмате.

Характеристики температуры и влажнoсти вoздуха измеряются на высoте 2 м в тени вдали oт зданий и деревьев.
Скoрoсть ветра измеряется на высoте 10 м (на урoвне рoста челoвека скoрoсть ветра ниже в 1.5-2 раза). Если метеoстанция нахoдится в гoрoде или в лесу, тo скoрoсть ветра занижена на 2-4 м/с пo сравнению с oткрытым местoм. Скoрoсть ветра над акватoриями крупных рек и oзёр, а также на вершинах хoлмoв на 2-5 м/с выше, чем в oбычных услoвиях.
Атмoсфернoе давление в разных тoчках местнoсти мoжет значительнo oтличаться oт давления на метеoстанции, в зависимoсти oт услoвий рельефа (при пoдъёме на 10 м давление пoнижается примернo на 1 мм рт.ст.).